,,,PA_Meas_PMT16A,,PR_Meas_QMR101_102,,RH_Meas_QMH101,,SR_Meas_QMS101,,TA_Meas_QMH101,,GenWind,,GenWind,
date,time,status,PA,status,PR,status,RH,status,SR,status,TA,status,DirAvg,status,SpdAvg,
2009-07-30, 00:00:04,VALID,1001.62,VALID,0,VALID,74.8237,VALID,0,VALID,23.742,VALID,135,VALID,1.75625,
2009-07-30, 00:01:04,VALID,1001.63,VALID,0,VALID,74.7703,VALID,0,VALID,23.7616,VALID,136,VALID,1.76641,
2009-07-30, 00:02:04,VALID,1001.61,VALID,0,VALID,75.2281,VALID,0,VALID,23.7207,VALID,138,VALID,1.39883,
2009-07-30, 00:03:04,VALID,1001.6,VALID,0,VALID,75.4188,VALID,0,VALID,23.6817,VALID,134,VALID,1.08242,
2009-07-30, 00:04:04,VALID,1001.58,VALID,0,VALID,75.579,VALID,0,VALID,23.6835,VALID,140,VALID,1.2043,
2009-07-30, 00:05:04,VALID,1001.58,VALID,0,VALID,75.5332,VALID,0,VALID,23.6445,VALID,130,VALID,1.20391,
2009-07-30, 00:06:04,VALID,1001.58,VALID,0,VALID,75.0678,VALID,0,VALID,23.6036,VALID,137,VALID,1.1375,
2009-07-30, 00:07:04,VALID,1001.57,VALID,0,VALID,75.2815,VALID,0,VALID,23.6054,VALID,119,VALID,1.02109,
2009-07-30, 00:08:04,VALID,1001.56,VALID,0,VALID,74.9534,VALID,0,VALID,23.625,VALID,124,VALID,1.56328,
2009-07-30, 00:09:04,VALID,1001.57,VALID,0,VALID,74.4117,VALID,0,VALID,23.6445,VALID,128,VALID,1.77461,
2009-07-30, 00:10:04,VALID,1001.57,VALID,0,VALID,74.694,VALID,0,VALID,23.6835,VALID,137,VALID,1.98438,
2009-07-30, 00:11:04,VALID,1001.5,VALID,0,VALID,74.8389,VALID,0,VALID,23.7012,VALID,141,VALID,1.45273,
2009-07-30, 00:12:04,VALID,1001.49,VALID,0,VALID,74.8313,VALID,0,VALID,23.6604,VALID,146,VALID,2.05195,
2009-07-30, 00:13:04,VALID,1001.43,VALID,0,VALID,74.4193,VALID,0,VALID,23.6817,VALID,128,VALID,1.77578,
2009-07-30, 00:14:04,VALID,1001.45,VALID,0,VALID,73.7861,VALID,0,VALID,23.6994,VALID,127,VALID,1.61367,
2009-07-30, 00:15:04,VALID,1001.45,VALID,0,VALID,73.6563,VALID,0,VALID,23.7579,VALID,136,VALID,2.17812,
2009-07-30, 00:16:04,VALID,1001.44,VALID,0,VALID,73.7708,VALID,0.112286,VALID,23.7775,VALID,127,VALID,1.99922,
2009-07-30, 00:17:04,VALID,1001.45,VALID,0,VALID,73.7098,VALID,0.112286,VALID,23.8183,VALID,129,VALID,1.93516,
2009-07-30, 00:18:04,VALID,1001.42,VALID,0,VALID,74.3812,VALID,0.112286,VALID,23.7775,VALID,133,VALID,1.44961,
2009-07-30, 00:19:04,VALID,1001.44,VALID,0,VALID,74.6482,VALID,0,VALID,23.7597,VALID,139,VALID,1.6,
2009-07-30, 00:20:04,VALID,1001.47,VALID,0,VALID,74.4117,VALID,0,VALID,23.6994,VALID,133,VALID,2.15156,
2009-07-30, 00:21:04,VALID,1001.41,VALID,0,VALID,74.5109,VALID,0,VALID,23.7012,VALID,122,VALID,2.15547,
2009-07-30, 00:22:04,VALID,1001.42,VALID,0,VALID,74.8466,VALID,0,VALID,23.6994,VALID,119,VALID,2.31953,
2009-07-30, 00:23:04,VALID,1001.45,VALID,0,VALID,74.6253,VALID,0,VALID,23.7384,VALID,129,VALID,1.98438,
2009-07-30, 00:24:04,VALID,1001.44,VALID,0,VALID,74.3506,VALID,0,VALID,23.7597,VALID,141,VALID,1.97734,
2009-07-30, 00:25:04,VALID,1001.45,VALID,0,VALID,74.9687,VALID,0,VALID,23.7384,VALID,137,VALID,2.0332,
2009-07-30, 00:26:04,VALID,1001.47,VALID,0,VALID,75.7011,VALID,0,VALID,23.7012,VALID,130,VALID,1.80586,
2009-07-30, 00:27:04,VALID,1001.46,VALID,0,VALID,72.7332,VALID,0,VALID,23.8183,VALID,127,VALID,2.78086,
2009-07-30, 00:28:04,VALID,1001.47,VALID,0,VALID,73.2444,VALID,0,VALID,23.9336,VALID,129,VALID,2.16289,
2009-07-30, 00:29:04,VALID,1001.46,VALID,0,VALID,73.9539,VALID,0,VALID,23.9744,VALID,130,VALID,1.7875,
2009-07-30, 00:30:04,VALID,1001.43,VALID,0,VALID,74.1752,VALID,0,VALID,23.9159,VALID,128,VALID,1.6875,
2009-07-30, 00:31:04,VALID,1001.45,VALID,0,VALID,74.4269,VALID,0,VALID,23.8768,VALID,128,VALID,1.9582,
2009-07-30, 00:32:04,VALID,1001.42,VALID,0,VALID,74.7779,VALID,0,VALID,23.7775,VALID,122,VALID,2.09297,
2009-07-30, 00:33:04,VALID,1001.42,VALID,0,VALID,74.7016,VALID,0,VALID,23.7793,VALID,119,VALID,2.26875,
2009-07-30, 00:34:04,VALID,1001.42,VALID,0,VALID,74.8389,VALID,0,VALID,23.7597,VALID,122,VALID,2.01523,
2009-07-30, 00:35:04,VALID,1001.41,VALID,0,VALID,75.0831,VALID,0,VALID,23.7402,VALID,130,VALID,2.23477,
2009-07-30, 00:36:04,VALID,1001.34,VALID,0,VALID,74.9534,VALID,0,VALID,23.6799,VALID,131,VALID,2.05938,
2009-07-30, 00:37:04,VALID,1001.32,VALID,0,VALID,75.1823,VALID,0,VALID,23.6817,VALID,127,VALID,2.09766,
2009-07-30, 00:38:04,VALID,1001.35,VALID,0,VALID,75.312,VALID,0,VALID,23.6817,VALID,142,VALID,2.15508,
2009-07-30, 00:39:04,VALID,1001.34,VALID,0,VALID,75.373,VALID,0,VALID,23.6817,VALID,148,VALID,1.76445,
2009-07-30, 00:40:04,VALID,1001.34,VALID,0,VALID,75.7545,VALID,0,VALID,23.6622,VALID,148,VALID,1.62266,
2009-07-30, 00:41:04,VALID,1001.3,VALID,0,VALID,75.6172,VALID,0,VALID,23.6054,VALID,137,VALID,1.79961,
2009-07-30, 00:42:04,VALID,1001.3,VALID,0,VALID,75.6629,VALID,0,VALID,23.5841,VALID,129,VALID,1.72773,
2009-07-30, 00:43:04,VALID,1001.32,VALID,0,VALID,75.7087,VALID,0,VALID,23.625,VALID,130,VALID,1.97266,
2009-07-30, 00:44:04,VALID,1001.3,VALID,0,VALID,76.0368,VALID,0,VALID,23.5841,VALID,130,VALID,1.66562,
2009-07-30, 00:45:04,VALID,1001.31,VALID,0,VALID,75.9223,VALID,0,VALID,23.5664,VALID,133,VALID,1.70703,
2009-07-30, 00:46:04,VALID,1001.33,VALID,0,VALID,74.9381,VALID,0,VALID,23.625,VALID,131,VALID,1.67969,
2009-07-30, 00:47:04,VALID,1001.29,VALID,0,VALID,74.9,VALID,0,VALID,23.6835,VALID,126,VALID,1.74336,
2009-07-30, 00:48:04,VALID,1001.32,VALID,0,VALID,74.5109,VALID,0,VALID,23.7225,VALID,135,VALID,2.15117,
2009-07-30, 00:49:04,VALID,1001.28,VALID,0,VALID,74.8237,VALID,0,VALID,23.7402,VALID,132,VALID,1.43633,
2009-07-30, 00:50:04,VALID,1001.28,VALID,0,VALID,74.9305,VALID,0,VALID,23.7225,VALID,134,VALID,1.75625,
2009-07-30, 00:51:04,VALID,1001.27,VALID,0,VALID,75.1289,VALID,0,VALID,23.6817,VALID,128,VALID,1.76445,
2009-07-30, 00:52:04,VALID,1001.27,VALID,0,VALID,75.0831,VALID,0,VALID,23.6835,VALID,131,VALID,1.41602,
2009-07-30, 00:53:04,VALID,1001.25,VALID,0,VALID,75.2204,VALID,0,VALID,23.6835,VALID,132,VALID,1.2457,
2009-07-30, 00:54:04,VALID,1001.24,VALID,0,VALID,75.4035,VALID,0,VALID,23.6622,VALID,121,VALID,1.56016,
2009-07-30, 00:55:04,VALID,1001.23,VALID,0,VALID,75.518,VALID,0,VALID,23.6445,VALID,118,VALID,1.91953,
2009-07-30, 00:56:04,VALID,1001.2,VALID,0,VALID,75.9452,VALID,0,VALID,23.6054,VALID,121,VALID,2.12422,
2009-07-30, 00:57:04,VALID,1001.2,VALID,0,VALID,75.9071,VALID,0,VALID,23.5664,VALID,119,VALID,1.76719,
2009-07-30, 00:58:04,VALID,1001.23,VALID,0,VALID,75.6935,VALID,0,VALID,23.5487,VALID,134,VALID,1.78242,
2009-07-30, 00:59:04,VALID,1001.2,VALID,0,VALID,75.7698,VALID,0,VALID,23.5469,VALID,128,VALID,1.90859,
2009-07-30, 01:00:04,VALID,1001.22,VALID,0,VALID,75.5638,VALID,0,VALID,23.5256,VALID,129,VALID,1.71016,
2009-07-30, 01:01:04,VALID,1001.2,VALID,0,VALID,75.6782,VALID,0,VALID,23.5469,VALID,141,VALID,1.3457,
2009-07-30, 01:02:04,VALID,1001.17,VALID,0,VALID,74.8771,VALID,0,VALID,23.6054,VALID,135,VALID,2.24688,
2009-07-30, 01:03:04,VALID,1001.19,VALID,0,VALID,74.6635,VALID,0,VALID,23.6835,VALID,130,VALID,1.96172,
2009-07-30, 01:04:04,VALID,1001.18,VALID,0,VALID,74.2362,VALID,0,VALID,23.703,VALID,130,VALID,1.61211,
2009-07-30, 01:05:04,VALID,1001.16,VALID,0,VALID,74.6558,VALID,0,VALID,23.7012,VALID,133,VALID,1.32383,
2009-07-30, 01:06:04,VALID,1001.21,VALID,0,VALID,74.7855,VALID,0,VALID,23.6835,VALID,137,VALID,1.29219,
2009-07-30, 01:07:04,VALID,1001.22,VALID,0,VALID,74.8466,VALID,0,VALID,23.6427,VALID,131,VALID,1.59219,
2009-07-30, 01:08:04,VALID,1001.2,VALID,0,VALID,74.8542,VALID,0,VALID,23.664,VALID,125,VALID,1.68047,
2009-07-30, 01:09:04,VALID,1001.18,VALID,0,VALID,74.6482,VALID,0,VALID,23.6445,VALID,123,VALID,1.83086,
2009-07-30, 01:10:04,VALID,1001.23,VALID,0,VALID,74.0455,VALID,0,VALID,23.664,VALID,119,VALID,2.10586,
2009-07-30, 01:11:04,VALID,1001.24,VALID,0,VALID,74.5338,VALID,0,VALID,23.7225,VALID,138,VALID,1.46797,
2009-07-30, 01:12:04,VALID,1001.26,VALID,0,VALID,74.7398,VALID,0,VALID,23.703,VALID,125,VALID,1.58516,
2009-07-30, 01:13:04,VALID,1001.26,VALID,0,VALID,74.5795,VALID,0,VALID,23.6835,VALID,119,VALID,2.01836,
2009-07-30, 01:14:04,VALID,1001.27,VALID,0,VALID,73.9234,VALID,0,VALID,23.742,VALID,128,VALID,2.02266,
2009-07-30, 01:15:04,VALID,1001.28,VALID,0,VALID,74.2744,VALID,0,VALID,23.7811,VALID,136,VALID,2.04219,
2009-07-30, 01:16:04,VALID,1001.29,VALID,0,VALID,74.4575,VALID,0,VALID,23.8006,VALID,135,VALID,1.60508,
2009-07-30, 01:17:04,VALID,1001.28,VALID,0,VALID,74.6635,VALID,0,VALID,23.7402,VALID,126,VALID,1.47305,
2009-07-30, 01:18:04,VALID,1001.29,VALID,0,VALID,74.9,VALID,0,VALID,23.7225,VALID,128,VALID,1.74063,
2009-07-30, 01:19:04,VALID,1001.29,VALID,0,VALID,75.0678,VALID,0,VALID,23.6817,VALID,128,VALID,1.9582,
2009-07-30, 01:20:04,VALID,1001.27,VALID,0,VALID,75.1441,VALID,0,VALID,23.6427,VALID,131,VALID,1.63516,
2009-07-30, 01:21:04,VALID,1001.3,VALID,0,VALID,75.2662,VALID,0,VALID,23.6427,VALID,130,VALID,2.18516,
2009-07-30, 01:22:04,VALID,1001.32,VALID,0,VALID,75.1823,VALID,0,VALID,23.664,VALID,134,VALID,2.68828,
2009-07-30, 01:23:04,VALID,1001.33,VALID,0,VALID,75.3654,VALID,0,VALID,23.6817,VALID,128,VALID,2.25547,
2009-07-30, 01:24:04,VALID,1001.35,VALID,0,VALID,75.2815,VALID,0,VALID,23.6835,VALID,146,VALID,1.84453,
2009-07-30, 01:25:04,VALID,1001.33,VALID,0,VALID,75.8766,VALID,0,VALID,23.6036,VALID,135,VALID,1.26328,
2009-07-30, 01:26:04,VALID,1001.35,VALID,0,VALID,75.6172,VALID,0,VALID,23.5859,VALID,123,VALID,1.75195,
2009-07-30, 01:27:04,VALID,1001.39,VALID,0,VALID,75.7926,VALID,0,VALID,23.5841,VALID,140,VALID,1.33789,
2009-07-30, 01:28:04,VALID,1001.37,VALID,0,VALID,75.9147,VALID,0,VALID,23.5859,VALID,146,VALID,1.06367,
2009-07-30, 01:29:04,VALID,1001.35,VALID,0,VALID,76.1818,VALID,0,VALID,23.5664,VALID,151,VALID,0.803125,
2009-07-30, 01:30:04,VALID,1001.32,VALID,0,VALID,76.2275,VALID,0,VALID,23.5274,VALID,143,VALID,0.7125,
2009-07-30, 01:31:04,VALID,1001.32,VALID,0,VALID,76.2352,VALID,0,VALID,23.4884,VALID,140,VALID,0.475781,
2009-07-30, 01:32:04,VALID,1001.33,VALID,0,VALID,76.7158,VALID,0,VALID,23.4688,VALID,147,VALID,0.303125,
2009-07-30, 01:33:05,VALID,1001.35,VALID,0,VALID,76.8074,VALID,0,VALID,23.4103,VALID,145,VALID,0.470703,
2009-07-30, 01:34:05,VALID,1001.33,VALID,0,VALID,77.0134,VALID,0,VALID,23.3518,VALID,153,VALID,0.228516,
2009-07-30, 01:35:05,VALID,1001.32,VALID,0,VALID,77.2423,VALID,0,VALID,23.3127,VALID,135,VALID,0.566016,
2009-07-30, 01:36:05,VALID,1001.3,VALID,0,VALID,77.0744,VALID,0,VALID,23.2932,VALID,144,VALID,0.878906,
2009-07-30, 01:37:05,VALID,1001.29,VALID,0,VALID,76.7769,VALID,0,VALID,23.2737,VALID,127,VALID,1.43047,
2009-07-30, 01:38:05,VALID,1001.26,VALID,0,VALID,76.4946,VALID,0,VALID,23.3518,VALID,117,VALID,1.51992,
2009-07-30, 01:39:05,VALID,1001.28,VALID,0,VALID,75.9986,VALID,0,VALID,23.4103,VALID,112,VALID,1.81523,
2009-07-30, 01:40:05,VALID,1001.3,VALID,0,VALID,75.6401,VALID,0,VALID,23.4688,VALID,122,VALID,1.64883,
2009-07-30, 01:41:05,VALID,1001.27,VALID,0,VALID,75.8918,VALID,0,VALID,23.5061,VALID,123,VALID,1.39258,
2009-07-30, 01:42:05,VALID,1001.27,VALID,0,VALID,75.8613,VALID,0,VALID,23.5061,VALID,141,VALID,1.4043,
2009-07-30, 01:43:05,VALID,1001.25,VALID,0,VALID,76.0139,VALID,0,VALID,23.5274,VALID,144,VALID,1.4082,
2009-07-30, 01:44:05,VALID,1001.23,VALID,0,VALID,76.197,VALID,0,VALID,23.4671,VALID,148,VALID,1.44375,
2009-07-30, 01:45:05,VALID,1001.24,VALID,0,VALID,76.403,VALID,0,VALID,23.4688,VALID,158,VALID,1.50859,
2009-07-30, 01:46:05,VALID,1001.25,VALID,0,VALID,76.403,VALID,0,VALID,23.4475,VALID,148,VALID,1.86953,
2009-07-30, 01:47:05,VALID,1001.25,VALID,0,VALID,76.6166,VALID,0,VALID,23.4475,VALID,135,VALID,1.72422,
2009-07-30, 01:48:05,VALID,1001.25,VALID,0,VALID,76.2733,VALID,0,VALID,23.4493,VALID,142,VALID,1.70469,
2009-07-30, 01:49:05,VALID,1001.27,VALID,0,VALID,76.6853,VALID,0,VALID,23.4671,VALID,143,VALID,1.21953,
2009-07-30, 01:50:05,VALID,1001.23,VALID,0,VALID,76.4946,VALID,0,VALID,23.4688,VALID,137,VALID,1.35234,
2009-07-30, 01:51:05,VALID,1001.24,VALID,0,VALID,76.3267,VALID,0,VALID,23.4475,VALID,134,VALID,1.73789,
2009-07-30, 01:52:05,VALID,1001.21,VALID,0,VALID,76.5251,VALID,0,VALID,23.4671,VALID,146,VALID,1.40625,
2009-07-30, 01:53:05,VALID,1001.19,VALID,0,VALID,76.4717,VALID,0,VALID,23.428,VALID,147,VALID,1.16836,
2009-07-30, 01:54:05,VALID,1001.17,VALID,0,VALID,76.0444,VALID,0,VALID,23.4688,VALID,128,VALID,1.54922,
2009-07-30, 01:55:05,VALID,1001.18,VALID,0,VALID,76.1818,VALID,0,VALID,23.5274,VALID,138,VALID,1.47227,
2009-07-30, 01:56:05,VALID,1001.17,VALID,0,VALID,76.2886,VALID,0,VALID,23.4866,VALID,134,VALID,1.17344,
2009-07-30, 01:57:05,VALID,1001.17,VALID,0,VALID,76.1818,VALID,0,VALID,23.4866,VALID,137,VALID,1.42266,
2009-07-30, 01:58:05,VALID,1001.19,VALID,0,VALID,76.6472,VALID,0,VALID,23.4884,VALID,144,VALID,1.41875,
2009-07-30, 01:59:05,VALID,1001.19,VALID,0,VALID,76.8761,VALID,0,VALID,23.428,VALID,146,VALID,1.25352,
2009-07-30, 02:00:05,VALID,1001.17,VALID,0,VALID,76.9295,VALID,0,VALID,23.4085,VALID,134,VALID,1.21992,
2009-07-30, 02:01:05,VALID,1001.16,VALID,0,VALID,77.0897,VALID,0,VALID,23.3908,VALID,127,VALID,1.19375,
2009-07-30, 02:02:05,VALID,1001.18,VALID,0,VALID,77.2575,VALID,0,VALID,23.3713,VALID,131,VALID,1.32148,
2009-07-30, 02:03:05,VALID,1001.13,VALID,0,VALID,76.9447,VALID,0,VALID,23.3305,VALID,136,VALID,1.48398,
2009-07-30, 02:04:05,VALID,1001.15,VALID,0,VALID,76.9523,VALID,0,VALID,23.35,VALID,139,VALID,0.986719,
2009-07-30, 02:05:05,VALID,1001.11,VALID,0,VALID,77.0821,VALID,0,VALID,23.3713,VALID,134,VALID,0.646094,
2009-07-30, 02:06:05,VALID,1001.1,VALID,0,VALID,76.754,VALID,0,VALID,23.35,VALID,140,VALID,0.842969,
2009-07-30, 02:07:05,VALID,1001.11,VALID,0,VALID,76.8379,VALID,0,VALID,23.3713,VALID,126,VALID,1.10508,
2009-07-30, 02:08:05,VALID,1001.08,VALID,0,VALID,76.9295,VALID,0,VALID,23.3713,VALID,143,VALID,1.24063,
2009-07-30, 02:09:05,VALID,1001.07,VALID,0,VALID,77.1583,VALID,0,VALID,23.3305,VALID,132,VALID,1.12812,
2009-07-30, 02:10:05,VALID,1001.07,VALID,0,VALID,77.1889,VALID,0,VALID,23.311,VALID,149,VALID,1.06094,
2009-07-30, 02:11:05,VALID,1001.04,VALID,0,VALID,76.9676,VALID,0,VALID,23.2737,VALID,154,VALID,1.35625,
2009-07-30, 02:12:05,VALID,1001.03,VALID,0,VALID,77.0363,VALID,0,VALID,23.2719,VALID,139,VALID,1.24531,
2009-07-30, 02:13:05,VALID,1001.04,VALID,0,VALID,77.1202,VALID,0,VALID,23.311,VALID,124,VALID,2.18633,
2009-07-30, 02:14:05,VALID,1001.03,VALID,0,VALID,76.96,VALID,0,VALID,23.3305,VALID,132,VALID,2.36406,
2009-07-30, 02:15:05,VALID,1001.01,VALID,0,VALID,77.1202,VALID,0,VALID,23.3305,VALID,135,VALID,1.925,
2009-07-30, 02:16:05,VALID,1001.03,VALID,0,VALID,77.0515,VALID,0,VALID,23.3323,VALID,140,VALID,1.86484,
2009-07-30, 02:17:05,VALID,1000.99,VALID,0,VALID,77.2652,VALID,0,VALID,23.311,VALID,131,VALID,1.74219,
2009-07-30, 02:18:05,VALID,1001.03,VALID,0,VALID,77.0897,VALID,0,VALID,23.3127,VALID,127,VALID,1.58945,
2009-07-30, 02:19:05,VALID,1001,VALID,0,VALID,77.1202,VALID,0,VALID,23.3323,VALID,135,VALID,1.41719,
2009-07-30, 02:20:05,VALID,1001.03,VALID,0,VALID,77.2041,VALID,0,VALID,23.2915,VALID,146,VALID,1.22891,
2009-07-30, 02:21:05,VALID,1001.01,VALID,0,VALID,77.166,VALID,0,VALID,23.2719,VALID,143,VALID,1.71055,
2009-07-30, 02:22:05,VALID,1000.99,VALID,0,VALID,77.3338,VALID,0,VALID,23.2719,VALID,135,VALID,1.71914,
2009-07-30, 02:23:05,VALID,1000.96,VALID,0,VALID,77.5551,VALID,0,VALID,23.2329,VALID,144,VALID,1.30195,
2009-07-30, 02:24:05,VALID,1000.93,VALID,0,VALID,77.7458,VALID,0,VALID,23.1939,VALID,142,VALID,1.44805,
2009-07-30, 02:25:05,VALID,1000.9,VALID,0,VALID,77.7229,VALID,0,VALID,23.1744,VALID,139,VALID,2.09258,
2009-07-30, 02:26:05,VALID,1000.89,VALID,0,VALID,77.1431,VALID,0,VALID,23.1939,VALID,127,VALID,2.35664,
2009-07-30, 02:27:05,VALID,1000.87,VALID,0,VALID,77.3796,VALID,0,VALID,23.2329,VALID,141,VALID,2.0168,
2009-07-30, 02:28:05,VALID,1000.87,VALID,0,VALID,77.4178,VALID,0,VALID,23.2134,VALID,143,VALID,2.17227,
2009-07-30, 02:29:05,VALID,1000.82,VALID,0,VALID,77.0668,VALID,0,VALID,23.2737,VALID,138,VALID,2.21719,
2009-07-30, 02:30:05,VALID,1000.8,VALID,0,VALID,77.4254,VALID,0,VALID,23.2719,VALID,136,VALID,1.59023,
2009-07-30, 02:31:05,VALID,1000.82,VALID,0,VALID,77.4254,VALID,0,VALID,23.2719,VALID,139,VALID,2.03398,
2009-07-30, 02:32:05,VALID,1000.82,VALID,0,VALID,77.6695,VALID,0,VALID,23.2719,VALID,135,VALID,1.55977,
2009-07-30, 02:33:05,VALID,1000.84,VALID,0,VALID,77.8603,VALID,0,VALID,23.2329,VALID,137,VALID,1.46719,
2009-07-30, 02:34:05,VALID,1000.82,VALID,0,VALID,77.9061,VALID,0,VALID,23.1939,VALID,140,VALID,1.56602,
2009-07-30, 02:35:05,VALID,1000.85,VALID,0,VALID,78.0052,VALID,0,VALID,23.1744,VALID,138,VALID,1.98594,
2009-07-30, 02:36:05,VALID,1000.88,VALID,0,VALID,78.1044,VALID,0,VALID,23.1549,VALID,134,VALID,2.18086,
2009-07-30, 02:37:05,VALID,1000.86,VALID,0,VALID,77.8603,VALID,0,VALID,23.1549,VALID,142,VALID,2.13867,
2009-07-30, 02:38:05,VALID,1000.86,VALID,0,VALID,77.7306,VALID,0,VALID,23.1939,VALID,136,VALID,2.19258,
2009-07-30, 02:39:05,VALID,1000.82,VALID,0,VALID,77.6085,VALID,0,VALID,23.2134,VALID,140,VALID,1.99766,
2009-07-30, 02:40:05,VALID,1000.83,VALID,0,VALID,77.8526,VALID,0,VALID,23.2542,VALID,136,VALID,1.83008,
2009-07-30, 02:41:05,VALID,1000.83,VALID,0,VALID,77.9289,VALID,0,VALID,23.2134,VALID,138,VALID,1.49023,
2009-07-30, 02:42:05,VALID,1000.8,VALID,0,VALID,77.8145,VALID,0,VALID,23.1939,VALID,138,VALID,2.0168,
2009-07-30, 02:43:05,VALID,1000.82,VALID,0,VALID,77.8908,VALID,0,VALID,23.2152,VALID,134,VALID,2.04609,
2009-07-30, 02:44:05,VALID,1000.79,VALID,0,VALID,77.7153,VALID,0,VALID,23.2134,VALID,136,VALID,2.2125,
2009-07-30, 02:45:05,VALID,1000.81,VALID,0,VALID,77.5093,VALID,0,VALID,23.2524,VALID,139,VALID,2.40469,
2009-07-30, 02:46:05,VALID,1000.79,VALID,0,VALID,77.7077,VALID,0,VALID,23.2915,VALID,129,VALID,1.62812,
2009-07-30, 02:47:05,VALID,1000.78,VALID,0,VALID,77.8145,VALID,0,VALID,23.2524,VALID,133,VALID,1.74727,
2009-07-30, 02:48:05,VALID,1000.82,VALID,0,VALID,77.7916,VALID,0,VALID,23.2329,VALID,148,VALID,1.58828,
2009-07-30, 02:49:05,VALID,1000.83,VALID,0,VALID,77.5093,VALID,0,VALID,23.2329,VALID,143,VALID,2.24766,
2009-07-30, 02:50:05,VALID,1000.8,VALID,0,VALID,77.6543,VALID,0,VALID,23.2524,VALID,141,VALID,2.16055,
2009-07-30, 02:51:05,VALID,1000.81,VALID,0,VALID,77.5398,VALID,0,VALID,23.2329,VALID,138,VALID,2.00781,
2009-07-30, 02:52:05,VALID,1000.84,VALID,0,VALID,77.6695,VALID,0,VALID,23.2524,VALID,139,VALID,1.33516,
2009-07-30, 02:53:05,VALID,1000.85,VALID,0,VALID,77.6924,VALID,0,VALID,23.2329,VALID,143,VALID,1.62812,
2009-07-30, 02:54:05,VALID,1000.83,VALID,0,VALID,77.9061,VALID,0,VALID,23.1939,VALID,131,VALID,1.36875,
2009-07-30, 02:55:05,VALID,1000.83,VALID,0,VALID,77.9137,VALID,0,VALID,23.1939,VALID,132,VALID,1.64961,
2009-07-30, 02:56:05,VALID,1000.83,VALID,0,VALID,77.8832,VALID,0,VALID,23.1939,VALID,134,VALID,1.80586,
2009-07-30, 02:57:05,VALID,1000.81,VALID,0,VALID,78.0586,VALID,0,VALID,23.1939,VALID,135,VALID,1.21172,
2009-07-30, 02:58:05,VALID,1000.8,VALID,0,VALID,78.2189,VALID,0,VALID,23.1957,VALID,135,VALID,1.60039,
2009-07-30, 02:59:05,VALID,1000.8,VALID,0,VALID,78.4554,VALID,0,VALID,23.1566,VALID,130,VALID,2.19609,
2009-07-30, 03:00:05,VALID,1000.81,VALID,0,VALID,77.9747,VALID,0,VALID,23.1762,VALID,133,VALID,3.04883,
2009-07-30, 03:01:05,VALID,1000.83,VALID,0,VALID,77.9213,VALID,0,VALID,23.2134,VALID,133,VALID,2.16094,
2009-07-30, 03:02:05,VALID,1000.81,VALID,0,VALID,78.0663,VALID,0,VALID,23.2347,VALID,126,VALID,1.74531,
2009-07-30, 03:03:05,VALID,1000.84,VALID,0,VALID,78.3943,VALID,0,VALID,23.1939,VALID,140,VALID,1.64961,
2009-07-30, 03:04:05,VALID,1000.85,VALID,0,VALID,78.5698,VALID,0,VALID,23.1354,VALID,144,VALID,1.4957,
2009-07-30, 03:05:05,VALID,1000.82,VALID,0,VALID,78.6843,VALID,0,VALID,23.1159,VALID,142,VALID,1.92266,
2009-07-30, 03:06:05,VALID,1000.84,VALID,0,VALID,78.5088,VALID,0,VALID,23.0964,VALID,132,VALID,1.92109,
2009-07-30, 03:07:05,VALID,1000.83,VALID,0,VALID,78.5775,VALID,0.112286,VALID,23.0964,VALID,136,VALID,1.86172,
2009-07-30, 03:08:05,VALID,1000.86,VALID,0,VALID,78.6843,VALID,0,VALID,23.0964,VALID,149,VALID,1.14219,
2009-07-30, 03:09:05,VALID,1000.84,VALID,0,VALID,78.8369,VALID,0,VALID,23.0573,VALID,129,VALID,1.41445,
2009-07-30, 03:10:05,VALID,1000.83,VALID,0,VALID,78.9589,VALID,0,VALID,23.0378,VALID,129,VALID,1.66641,
2009-07-30, 03:11:05,VALID,1000.81,VALID,0,VALID,78.9284,VALID,0,VALID,23.0183,VALID,128,VALID,1.74453,
2009-07-30, 03:12:05,VALID,1000.81,VALID,0,VALID,78.6309,VALID,0,VALID,23.0378,VALID,129,VALID,2.02148,
2009-07-30, 03:13:05,VALID,1000.82,VALID,0,VALID,78.6156,VALID,0,VALID,23.0981,VALID,132,VALID,1.71406,
2009-07-30, 03:14:05,VALID,1000.82,VALID,0,VALID,78.6003,VALID,0,VALID,23.0769,VALID,131,VALID,1.45664,
2009-07-30, 03:15:05,VALID,1000.84,VALID,0,VALID,78.3257,VALID,0,VALID,23.0573,VALID,135,VALID,1.59766,
2009-07-30, 03:16:05,VALID,1000.84,VALID,0,VALID,78.6843,VALID,0,VALID,23.0769,VALID,127,VALID,1.07852,
2009-07-30, 03:17:05,VALID,1000.86,VALID,0,VALID,78.7758,VALID,0,VALID,23.0573,VALID,123,VALID,1.36367,
2009-07-30, 03:18:05,VALID,1000.85,VALID,0,VALID,79.02,VALID,0,VALID,23.0183,VALID,144,VALID,1.24414,
2009-07-30, 03:19:05,VALID,1000.86,VALID,0,VALID,78.7606,VALID,0,VALID,23.0006,VALID,137,VALID,1.96055,
2009-07-30, 03:20:05,VALID,1000.8,VALID,0,VALID,78.6614,VALID,0,VALID,23.0378,VALID,117,VALID,1.84961,
2009-07-30, 03:21:05,VALID,1000.83,VALID,0,VALID,78.5317,VALID,0,VALID,23.0769,VALID,129,VALID,1.70547,
2009-07-30, 03:22:05,VALID,1000.83,VALID,0,VALID,78.5546,VALID,0,VALID,23.0769,VALID,126,VALID,2.02578,
2009-07-30, 03:23:05,VALID,1000.82,VALID,0,VALID,78.8063,VALID,0,VALID,23.0573,VALID,120,VALID,1.55898,
2009-07-30, 03:24:05,VALID,1000.81,VALID,0,VALID,79.0047,VALID,0,VALID,23.0378,VALID,128,VALID,1.76016,
2009-07-30, 03:25:05,VALID,1000.81,VALID,0,VALID,78.9742,VALID,0,VALID,23.0183,VALID,133,VALID,1.50234,
2009-07-30, 03:26:05,VALID,1000.8,VALID,0,VALID,78.9513,VALID,0,VALID,22.9988,VALID,132,VALID,1.42891,
2009-07-30, 03:27:05,VALID,1000.83,VALID,0,VALID,78.9437,VALID,0,VALID,22.9793,VALID,135,VALID,1.41875,
2009-07-30, 03:28:05,VALID,1000.81,VALID,0,VALID,78.8979,VALID,0,VALID,22.9988,VALID,151,VALID,1.74258,
2009-07-30, 03:29:05,VALID,1000.78,VALID,0,VALID,79.0276,VALID,0,VALID,22.9988,VALID,139,VALID,1.16094,
2009-07-30, 03:30:05,VALID,1000.76,VALID,0,VALID,79.1955,VALID,0,VALID,22.9793,VALID,146,VALID,1.01406,
2009-07-30, 03:31:05,VALID,1000.78,VALID,0,VALID,79.1497,VALID,0,VALID,22.9403,VALID,151,VALID,1.50469,
2009-07-30, 03:32:05,VALID,1000.81,VALID,0,VALID,79.3023,VALID,0,VALID,22.9208,VALID,170,VALID,1.60625,
2009-07-30, 03:33:05,VALID,1000.82,VALID,0,VALID,79.2031,VALID,0,VALID,22.9403,VALID,170,VALID,1.55273,
2009-07-30, 03:34:05,VALID,1000.8,VALID,0,VALID,78.6919,VALID,0,VALID,22.9793,VALID,167,VALID,1.33125,
2009-07-30, 03:35:05,VALID,1000.79,VALID,0,VALID,78.5088,VALID,0,VALID,23.0378,VALID,156,VALID,1.11992,
2009-07-30, 03:36:05,VALID,1000.81,VALID,0,VALID,78.3409,VALID,0,VALID,23.0591,VALID,150,VALID,1.24844,
2009-07-30, 03:37:05,VALID,1000.82,VALID,0,VALID,78.3104,VALID,0,VALID,23.0981,VALID,152,VALID,1.31562,
2009-07-30, 03:38:05,VALID,1000.79,VALID,0,VALID,78.2341,VALID,0,VALID,23.0981,VALID,125,VALID,0.772266,
2009-07-30, 03:39:05,VALID,1000.77,VALID,0,VALID,78.2799,VALID,0,VALID,23.0964,VALID,147,VALID,1.13789,
2009-07-30, 03:40:05,VALID,1000.76,VALID,0,VALID,78.318,VALID,0,VALID,23.0769,VALID,147,VALID,1.12344,
2009-07-30, 03:41:05,VALID,1000.76,VALID,0,VALID,78.669,VALID,0,VALID,23.0573,VALID,144,VALID,0.976172,
2009-07-30, 03:42:05,VALID,1000.79,VALID,0,VALID,78.8521,VALID,0,VALID,22.9988,VALID,160,VALID,0.8,
2009-07-30, 03:43:05,VALID,1000.8,VALID,0,VALID,78.9895,VALID,0,VALID,22.9811,VALID,169,VALID,1.0125,
2009-07-30, 03:44:05,VALID,1000.76,VALID,0,VALID,78.8979,VALID,0,VALID,22.9598,VALID,169,VALID,0.848047,
2009-07-30, 03:45:05,VALID,1000.79,VALID,0,VALID,78.7453,VALID,0,VALID,22.9811,VALID,149,VALID,0.628516,
2009-07-30, 03:46:05,VALID,1000.74,VALID,0,VALID,78.9818,VALID,0,VALID,22.9988,VALID,132,VALID,0.758984,